Regional Weather Roundup
Issued by NWS Sioux Falls, SD

Home | Current Version | Previous Version | Graphics & Text | Print | Product List | Glossary On
Versions: 1 2 3 4 5 6 7 8 9 10 11 12 13 14 15 16 17 18 19 20 21 22 23 24 25 26 27 28 29 30 31 32 33 34 35 36 37 38 39 40 41 42 43 44 45 46 47 48 49 50
000
ASUS43 KFSD 020610
RWRFSD

WEATHER ROUNDUP FOR SE SOUTH DAKOTA/SW MINNESOTA/NW IOWA
NATIONAL WEATHER SERVICE SIOUX FALLS SD
100 AM CDT THU OCT 02 2014

NOTE: "FAIR" INDICATES FEW OR NO CLOUDS BELOW 12,000 FEET WITH NO
SIGNIFICANT WEATHER AND OR OBSTRUCTIONS TO VISIBILITY.


SDZ038>040-050-052>070-020700-
SOUTHEAST SOUTH DAKOTA

CITY           SKY/WX    TMP DP  RH WIND       PRES   REMARKS
CHAMBERLAIN    CLOUDY    55  47  74 W6        29.92R
6HR MIN TEMP:  54; 6HR MAX TEMP:  66;

HURON          PTCLDY    48  45  89 CALM      29.88S
6HR MIN TEMP:  48; 6HR MAX TEMP:  68;

MADISON        MOCLDY    50  50 100 N6        29.87F
MITCHELL       MOCLDY    50  47  89 NW6       29.88F
6HR MIN TEMP:  50; 6HR MAX TEMP:  68;

SIOUX FALLS    CLEAR     54  50  86 N6        29.85R
6HR MIN TEMP:  54; 6HR MAX TEMP:  68;

WINNER         LGT RAIN  54  49  83 W5        29.94R
YANKTON        CLEAR     55  50  82 N14       29.83F
$$

MNZ071-072-080-081-089-090-097-098-020700-
SOUTHWEST MINNESOTA

CITY           SKY/WX    TMP DP  RH WIND       PRES   REMARKS
FAIRMONT       CLOUDY    55  52  88 CALM      29.82S VSB<1/4
JACKSON        FOG       52  50  93 CALM      29.83S VSB 3/4
LUVERNE        CLEAR     57  50  77 N5        29.85R
MARSHALL       CLEAR     52  45  76 W7        29.85R
6HR MIN TEMP:  52; 6HR MAX TEMP:  66;

MONTEVIDEO     PTCLDY    54  50  87 CALM      29.86R
PIPESTONE      CLEAR     54  48  82 N3        29.86R
REDWOOD FALLS  PTCLDY    54  54 100 W3        29.83R
TRACY          CLEAR     55  51  87 NW7       29.86R
WINDOM         FOG       57  57 100 CALM      29.83S VSB<1/4
WORTHINGTON    CLEAR     54  52  94 N6        29.85R
$$

IAZ001>003-012>014-020>022-031-032-NEZ013-014-SDZ071-020700-
NORTHWEST IOWA

CITY           SKY/WX    TMP DP  RH WIND       PRES   REMARKS
CHEROKEE       CLOUDY    61  60  97 CALM      29.81R
DENISON        MOCLDY    63  63 100 CALM      29.78F FOG
ESTHERVILLE    CLOUDY    57  56  96 S5        29.82S
LE MARS        MOCLDY    57  55  94 CALM      29.81F
ORANGE CITY    PTCLDY    64  54  68 N5        29.81F
SHELDON        PTCLDY    55  54  94 N6        29.81S
SIOUX CITY     CLOUDY    60  58  92 N5        29.80F
6HR MIN TEMP:  60; 6HR MAX TEMP:  74;

SPENCER        MOCLDY    57  56  96 NE6       29.81S
6HR MIN TEMP:  57; 6HR MAX TEMP:  65;

STORM LAKE     LGT RAIN  61  59  94 W6        29.82R
$$

ABBREVIATIONS USED IN REMARKS
   TC - TEMPERATURE IN CELSIUS
  WCI - WIND CHILL INDEX
   HX - HEAT INDEX
  VSB - VISIBILITY




USA.gov is the U.S. government's official web portal to all federal, state and local government web resources and services.